OSCAR 6

Satellite information

Favourite Embed

Satellite Type and Status

PAYLOADIN ORBIT

Key statistics

Satellite OSCAR 6 at a glance.

Uptime

19372

Days in orbit

Revolutions

≈ 12.5

Per day

Orbit

SSO

Sun Synchronous Orbit

Inclination

102.0

Latest

Satellite identification and parameters

Extended collection of information and parameters for OSCAR 6.

Object identification

Identified? True

Debris? False

Object name: OSCAR 6

International designator: 1972-082B

Object number (NORAD): 6236

Object ID (CCSDS): 6236

Country: UNITED STATES OF AMERICA (US)

Current information (Y/N): Y

RCS size: MEDIUM

Orbital parameters

Period: 114.905 minutes

Inclination: 102.0123 deg

SMA: 7829.251 km

Apoapsis: 1454.329 km

Periapsis: 1447.903 km

RAAN: 317.5045 deg

Eccentricy: 0.00041033

Argument of periapsis: 230.2688 deg

Mean anomaly: 261.8096 deg

Mean motion: 12.532059 rev/day

Mean motion (dot): -0.0000005 rev/day2

B* drag term: -0.000021423165 1/REarth

Two-line elements (TLE)

Creation date: Oct. 28, 2025, 7:11 p.m.

Reference frame: TEME

Reference center: EARTH

Epoch: Oct. 28, 2025, 12:18 p.m. UTC

TLE line 0: 0 OSCAR 6

TLE line 1: 1 06236U 72082B 25301.51276422 -.00000050 00000-0 -21423-4 0 9999

TLE line 2: 2 06236 102.0123 317.5045 0004103 230.2688 261.8096 12.53205900425943

Live tracking on map

Real-time ground track for satellite OSCAR 6.

In-orbit conjunctions

There are no conjunctions computed for OSCAR 6, at the moment. Check back to stay up to date, as we update our databases every day.

Go to all conjunctions

Associated space launch

Meteorological satellite using radiometric imaging

OSCAR 6 was lifted into orbit during the mission ‘Delta 0300 | NOAA 2’, on board a Delta 0300 space rocket.

The launch took place on Oct. 15, 1972, 5:19 p.m. from Space Launch Complex 2W.

For more information about the launch, click the button.

Launch to space Delta 0300 | NOAA 2
Delta 0300 | NOAA 2

Agency: N/A

Status: Launch Successful

Launch date: Oct. 15, 1972, 5:19 p.m. UTC

Rocket: Delta 0300

Launch pad: Space Launch Complex 2W

Location: Vandenberg SFB, CA, USA

...

Latest news about this satellite

There are no fresh news available about this satellite. Check back as we update our databases every day.


Newsletter sign-up

Weekly statistics, charts and insights to help you stay on top of the space industry.